Wind_Speed
8 8 8 7 7 6 7 7 6 6 6 6 6 6 5 5 5 5 5 6 6 6 6 6 6 6 7 8 8 9 9 10 10 11 11 12 13 14 14 15 16 16 17
8 8 8 8 8 7 7 7 7 7 7 7 7 7 7 7 7 7 7 7 8 8 8 9 8 9 9 10 10 10 11 12 12 13 13 14 15 15 16 17 18 19 19
9 9 9 8 8 8 8 8 8 8 7 8 8 8 8 9 9 9 9 9 10 10 10 10 10 11 12 12 12 12 13 14 14 15 16 17 17 18 18 19 20 21 22
10 10 10 10 9 9 9 9 9 9 9 9 9 9 9 9 10 11 11 11 12 12 12 12 13 13 14 14 14 14 15 16 16 17 18 18 19 19 20 21 22 23 24
10 10 10 10 10 10 11 10 11 11 11 11 11 11 11 11 11 12 13 13 13 14 14 14 15 15 15 15 15 16 17 18 18 19 19 20 21 21 22 23 24 25 26
10 10 10 10 10 11 11 12 13 13 12 12 12 13 13 13 13 13 14 14 14 14 15 15 16 16 16 17 17 18 18 19 19 20 20 21 22 23 24 25 26 27 28
11 11 11 11 11 11 11 11 12 12 13 13 13 13 14 14 14 14 15 15 15 16 17 17 18 18 18 18 19 20 20 20 21 21 22 23 23 24 25 26 27 27 29
11 11 12 13 13 13 13 13 13 13 14 14 14 14 14 15 16 16 16 16 17 18 18 18 19 19 20 21 21 21 21 22 23 23 24 25 25 26 27 28 29 29 30
13 13 13 13 14 14 14 14 15 15 15 15 16 16 17 17 18 18 19 19 19 20 20 20 20 21 21 21 22 22 23 24 25 25 26 27 27 28 29 30 30 31 32
13 14 14 14 15 15 15 15 15 16 16 16 17 18 18 18 19 19 20 20 21 21 22 22 23 23 23 24 24 24 25 26 27 27 28 29 29 30 31 31 32 33 33
14 14 14 15 15 16 16 16 17 17 17 17 18 19 19 20 20 21 21 22 23 23 24 24 24 25 25 25 26 26 27 28 28 29 30 30 31 32 32 33 34 35 35
15 15 15 16 16 17 17 18 18 18 18 19 20 20 21 21 21 22 23 24 25 25 25 26 26 27 27 27 27 28 29 29 30 31 31 32 32 33 34 34 35 36 37
15 16 16 16 17 17 18 18 18 19 20 21 21 21 22 22 22 23 24 25 25 25 26 27 27 28 28 28 29 30 30 31 32 32 33 33 34 35 36 36 37 37 38
16 16 16 17 17 18 18 18 19 20 20 20 21 21 22 23 23 24 24 25 25 26 27 29 29 29 29 30 30 31 31 32 33 33 34 35 35 36 37 38 38 39 40
17 18 18 18 18 18 18 18 19 19 20 20 21 22 23 23 24 25 25 25 27 28 28 29 30 30 30 30 31 31 32 33 34 34 35 35 37 38 39 40 41 42 43
17 17 18 18 18 18 18 18 18 19 19 21 22 23 23 24 24 25 26 27 28 28 29 29 30 31 31 32 33 34 34 35 35 36 37 38 39 41 42 43 44 45 45
18 18 18 18 19 19 19 19 19 19 20 21 22 23 24 24 25 26 27 27 28 29 29 30 30 31 33 34 35 35 36 37 38 38 40 41 42 43 45 46 46 47 47
19 20 20 19 20 20 20 20 20 20 21 22 23 24 25 25 26 27 27 28 29 29 30 30 32 33 34 36 37 37 38 39 39 41 42 43 44 46 47 48 49 49 50
21 21 21 21 21 21 21 22 22 23 23 24 24 25 26 27 28 28 29 30 31 32 33 33 34 35 36 38 39 39 40 40 41 43 44 45 46 47 48 49 50 50 51
23 23 23 23 23 23 23 24 24 25 26 26 27 28 28 29 30 30 31 32 33 34 35 35 36 37 38 39 40 41 41 41 42 43 44 46 47 48 49 50 51 51 52
24 24 24 25 25 25 25 26 27 27 28 29 29 30 30 31 31 32 33 34 35 36 36 37 38 39 39 40 41 42 42 42 44 45 47 48 49 49 50 50 50 51 51
25 25 26 26 26 26 27 28 28 29 29 30 30 31 32 32 33 33 34 35 36 37 37 38 39 40 41 41 42 42 43 44 45 47 48 49 49 50 50 50 50 51 52
26 27 27 27 27 28 28 28 29 30 30 31 32 32 32 33 33 34 35 36 37 38 39 39 40 41 41 42 43 44 45 46 47 48 48 48 49 49 49 50 50 51 52
27 27 27 27 27 28 28 29 29 30 30 31 32 33 33 33 34 35 36 37 39 39 40 40 41 42 43 44 45 46 46 47 48 48 48 48 49 49 50 50 50 51 52
28 28 28 28 28 29 29 29 30 30 31 31 32 32 33 34 35 36 37 38 38 39 40 41 42 43 44 45 46 47 48 48 48 48 49 49 50 50 50 50 51 51 51
29 29 29 29 29 29 30 31 31 32 32 33 33 34 35 35 36 37 37 38 39 40 41 42 43 44 45 46 47 47 47 47 48 48 49 50 50 49 49 49 49 49 50
Wind_Direction
227 219 221 226 230 236 238 240 245 252 255 254 263 277 278 280 288 299 306 309 309 310 309 310 312 311 308 304 300 295 290 287 286 285 283 281 282 287 288 288 287 287 282
223 224 229 234 236 238 241 244 249 255 259 262 265 274 277 277 281 287 291 294 299 302 301 302 302 303 302 301 298 295 293 291 288 287 286 285 284 288 290 290 291 289 287
226 229 235 240 242 244 247 250 255 259 267 272 275 275 275 276 279 281 283 286 290 293 295 297 297 298 298 297 294 293 292 291 289 288 287 286 286 288 290 289 289 289 288
231 234 240 245 247 247 254 261 262 264 267 273 277 279 279 280 281 280 282 283 285 287 289 291 292 293 294 294 292 292 292 291 290 288 288 288 287 287 289 289 289 289 289
234 236 243 245 249 253 258 262 265 269 268 272 273 276 279 281 283 283 281 283 286 288 289 290 289 289 290 290 292 293 293 291 290 288 288 288 288 288 289 289 290 291 290
238 240 246 250 254 259 262 265 267 270 270 271 272 276 279 280 282 284 284 284 286 290 293 294 293 291 289 289 290 291 293 292 290 289 288 289 289 290 289 290 291 291 292
245 247 250 254 258 262 266 268 272 273 272 272 275 277 279 281 283 284 285 285 286 289 291 292 292 292 293 293 292 291 292 291 291 290 289 288 289 290 292 292 292 293 293
248 251 255 257 260 263 267 270 274 275 275 275 275 276 278 280 283 284 285 286 288 290 290 291 292 292 293 294 294 293 293 293 292 291 290 290 291 292 293 293 292 293 293
253 255 258 259 261 263 266 270 273 275 275 276 277 277 279 281 282 281 282 284 287 289 290 291 292 293 293 293 293 293 293 293 293 293 292 292 293 294 294 294 294 293 293
257 258 261 262 262 265 268 270 273 275 276 276 277 278 279 281 282 282 282 283 285 288 289 290 291 292 291 292 293 293 293 293 294 294 293 293 293 293 293 294 294 295 295
258 259 261 263 265 268 270 272 274 275 276 279 279 279 280 282 284 283 282 283 285 287 289 290 291 290 290 291 292 292 293 294 294 294 293 293 293 292 293 293 294 295 296
259 261 263 264 267 269 271 274 275 275 276 278 280 280 280 283 285 285 285 286 287 288 289 291 291 292 290 291 292 293 293 293 294 294 294 294 294 294 295 295 296 296 297
262 265 266 267 269 270 272 275 276 277 278 279 280 281 283 283 286 288 288 288 288 289 289 291 292 292 292 292 292 293 294 294 294 293 294 294 294 295 296 297 297 297 297
265 268 269 268 269 271 272 274 277 279 279 282 282 284 286 286 286 288 288 289 290 291 292 293 293 293 293 293 291 292 293 293 293 293 293 294 295 296 297 298 298 298 298
266 267 267 269 271 272 274 277 278 278 277 280 283 283 284 286 288 289 290 290 290 291 291 292 292 292 292 294 293 293 294 294 294 294 294 294 296 297 298 298 298 298 298
266 267 268 270 271 273 274 276 279 281 281 281 282 284 286 288 290 291 291 292 292 291 292 293 293 292 292 293 294 294 294 294 294 293 294 295 296 297 298 298 299 299 298
269 271 271 271 273 273 272 273 277 279 282 285 286 287 288 290 291 292 292 293 294 295 295 294 294 294 295 295 295 295 295 295 295 295 295 296 297 297 298 298 298 298 298
269 271 272 273 275 278 278 276 277 280 284 286 288 289 291 291 292 293 294 295 296 296 296 296 296 297 297 297 297 297 297 297 296 296 297 297 297 298 298 298 298 298 298
269 270 272 274 277 280 280 281 281 282 284 286 288 290 291 291 292 293 294 295 296 297 297 297 298 298 299 300 299 298 298 297 297 297 297 298 298 298 299 299 299 299 299
272 271 272 274 277 279 279 280 281 283 284 286 289 291 292 293 293 294 295 296 297 298 298 298 298 299 300 300 300 300 299 299 298 298 298 298 299 300 300 300 300 300 301
272 272 273 274 276 278 280 281 282 284 285 287 288 290 291 293 294 294 296 296 297 298 298 299 300 300 301 302 303 302 300 300 299 299 299 299 300 301 301 301 301 302 302
271 272 274 276 277 279 280 282 284 285 286 287 289 290 292 293 294 294 295 296 298 298 299 300 301 301 302 302 302 302 301 301 300 300 300 300 301 302 302 302 302 303 303
271 273 275 276 278 279 281 282 284 285 287 288 290 291 292 293 294 296 297 298 299 299 300 300 301 302 303 303 303 302 301 301 301 301 301 302 302 302 302 303 303 303 304
271 272 275 277 279 280 282 284 285 287 288 289 291 292 292 293 295 296 297 299 299 299 299 300 301 302 303 303 303 303 303 303 303 303 303 303 303 303 303 303 304 304 305
270 272 275 277 279 281 282 284 286 288 290 291 292 293 293 293 294 296 297 298 299 299 299 300 301 302 303 304 304 304 304 304 304 304 304 304 305 305 304 304 304 305 305
270 272 275 277 279 280 282 284 286 288 289 291 292 293 294 295 296 297 298 298 299 299 300 302 303 304 305 306 306 306 306 306 306 306 306 306 306 306 305 305 306 306 307
Height
5872 5873 5874 5875 5875 5876 5877 5877 5877 5877 5877 5877 5877 5877 5876 5876 5875 5875 5874 5873 5872 5871 5870 5869 5868 5867 5866 5865 5864 5863 5862 5861 5860 5859 5857 5856 5855 5854 5851 5849 5848 5846 5845
5870 5871 5872 5873 5874 5874 5875 5875 5875 5875 5876 5875 5875 5875 5875 5874 5874 5873 5872 5872 5871 5870 5869 5867 5866 5865 5864 5863 5862 5860 5859 5858 5857 5856 5854 5853 5851 5850 5848 5846 5844 5842 5840
5868 5870 5871 5872 5872 5873 5873 5873 5874 5874 5874 5874 5873 5873 5873 5872 5872 5871 5870 5869 5869 5868 5866 5865 5864 5863 5862 5860 5859 5858 5856 5855 5853 5852 5851 5849 5847 5845 5843 5841 5839 5837 5835
5866 5868 5869 5870 5870 5871 5871 5871 5871 5871 5871 5871 5871 5871 5870 5870 5869 5868 5867 5867 5866 5865 5864 5862 5861 5860 5859 5857 5856 5854 5852 5851 5849 5848 5846 5844 5842 5840 5838 5836 5834 5832 5830
5864 5865 5866 5867 5868 5868 5868 5869 5869 5869 5869 5869 5868 5868 5868 5867 5866 5865 5864 5863 5862 5861 5860 5859 5858 5856 5855 5853 5852 5850 5848 5846 5845 5843 5841 5839 5837 5835 5833 5831 5828 5826 5823
5862 5863 5863 5864 5865 5865 5866 5866 5866 5865 5865 5865 5865 5865 5864 5864 5863 5862 5861 5860 5859 5857 5856 5855 5854 5852 5851 5849 5848 5846 5844 5842 5839 5837 5836 5834 5832 5829 5827 5824 5822 5819 5817
5859 5860 5861 5861 5862 5862 5862 5862 5862 5862 5862 5862 5861 5861 5860 5860 5859 5858 5857 5856 5855 5853 5852 5851 5849 5848 5846 5844 5843 5841 5839 5836 5834 5832 5830 5828 5826 5823 5821 5818 5815 5812 5809
5856 5857 5857 5858 5859 5859 5859 5859 5859 5858 5858 5858 5857 5857 5856 5856 5855 5854 5853 5852 5850 5849 5848 5846 5845 5843 5841 5839 5837 5835 5833 5831 5828 5826 5824 5821 5819 5816 5814 5811 5808 5805 5802
5853 5853 5854 5854 5855 5855 5855 5855 5854 5854 5854 5854 5853 5853 5852 5851 5850 5849 5848 5847 5845 5844 5843 5841 5839 5838 5836 5833 5831 5829 5827 5825 5822 5820 5817 5814 5812 5809 5806 5803 5800 5797 5793
5849 5849 5850 5850 5850 5850 5850 5850 5850 5849 5849 5849 5848 5848 5847 5846 5845 5844 5843 5842 5840 5839 5837 5835 5834 5832 5830 5827 5825 5823 5820 5818 5815 5813 5810 5807 5804 5801 5798 5795 5791 5788 5784
5845 5845 5845 5846 5846 5846 5846 5845 5845 5845 5844 5844 5843 5842 5842 5841 5840 5839 5837 5836 5835 5833 5831 5829 5827 5825 5823 5821 5818 5816 5813 5811 5808 5805 5802 5798 5795 5792 5789 5785 5782 5778 5775
5840 5841 5841 5841 5841 5841 5841 5840 5840 5839 5839 5838 5837 5837 5836 5835 5834 5832 5831 5830 5828 5826 5824 5822 5820 5818 5816 5813 5811 5808 5806 5803 5800 5797 5793 5790 5787 5783 5780 5776 5772 5769 5765
5836 5836 5836 5836 5836 5835 5835 5835 5834 5834 5833 5832 5831 5831 5830 5829 5827 5826 5824 5823 5821 5819 5817 5815 5813 5810 5808 5806 5803 5800 5798 5795 5791 5788 5785 5781 5778 5774 5771 5767 5763 5758 5754
5831 5831 5831 5831 5830 5830 5830 5829 5829 5828 5827 5827 5826 5824 5824 5822 5821 5819 5817 5815 5814 5812 5810 5807 5805 5803 5800 5797 5795 5792 5789 5786 5782 5779 5776 5772 5768 5765 5761 5757 5753 5748 5743
5825 5825 5825 5825 5825 5824 5824 5823 5823 5822 5821 5821 5820 5818 5817 5816 5814 5812 5810 5808 5806 5804 5802 5800 5797 5795 5792 5789 5786 5783 5780 5776 5773 5770 5766 5762 5759 5755 5750 5746 5742 5737 5732
5820 5820 5820 5820 5819 5819 5818 5818 5817 5816 5815 5814 5813 5812 5811 5809 5807 5805 5803 5801 5798 5796 5794 5791 5789 5786 5783 5780 5777 5774 5770 5767 5763 5760 5756 5752 5748 5744 5739 5735 5730 5725 5719
5815 5814 5814 5814 5814 5813 5813 5812 5811 5811 5809 5808 5807 5805 5804 5802 5800 5798 5796 5794 5791 5788 5786 5783 5780 5777 5774 5771 5767 5764 5760 5757 5753 5749 5745 5741 5736 5732 5727 5722 5717 5712 5706
5809 5809 5808 5808 5808 5807 5806 5806 5805 5804 5803 5802 5800 5798 5797 5795 5793 5791 5788 5786 5783 5780 5777 5774 5771 5768 5764 5761 5757 5754 5750 5746 5742 5737 5733 5729 5724 5719 5714 5709 5703 5698 5692
5802 5802 5802 5802 5801 5800 5800 5799 5798 5797 5796 5795 5793 5791 5789 5787 5785 5783 5780 5777 5775 5772 5768 5765 5762 5758 5755 5751 5747 5743 5738 5734 5730 5725 5721 5716 5711 5705 5700 5695 5689 5683 5678
5795 5795 5795 5795 5794 5794 5793 5792 5791 5790 5788 5787 5785 5783 5781 5779 5776 5774 5771 5768 5766 5762 5759 5755 5752 5748 5744 5740 5735 5731 5727 5722 5718 5713 5708 5703 5698 5692 5686 5681 5675 5669 5663
5788 5788 5788 5787 5787 5786 5785 5784 5783 5782 5780 5778 5776 5774 5772 5770 5767 5765 5762 5759 5756 5753 5749 5745 5741 5737 5733 5728 5724 5719 5715 5710 5705 5700 5695 5690 5684 5678 5672 5666 5660 5654 5648
5781 5780 5780 5780 5779 5778 5777 5776 5774 5773 5771 5769 5767 5765 5762 5760 5757 5755 5752 5749 5746 5742 5738 5734 5730 5726 5721 5717 5712 5708 5703 5698 5693 5687 5682 5676 5670 5664 5658 5652 5646 5640 5633
5772 5772 5772 5771 5770 5769 5768 5767 5766 5764 5762 5760 5758 5755 5753 5750 5747 5745 5742 5739 5735 5732 5728 5724 5719 5715 5710 5705 5700 5696 5690 5685 5679 5673 5668 5662 5656 5650 5644 5638 5632 5625 5619
5764 5764 5763 5763 5762 5761 5759 5758 5757 5755 5753 5750 5748 5746 5743 5741 5738 5735 5732 5728 5725 5721 5717 5713 5708 5704 5699 5694 5688 5683 5677 5671 5665 5659 5654 5648 5642 5636 5630 5624 5617 5611 5604
5755 5755 5754 5754 5753 5752 5751 5749 5747 5745 5743 5741 5738 5736 5733 5731 5728 5724 5721 5718 5714 5710 5706 5701 5697 5692 5686 5681 5675 5669 5664 5657 5651 5645 5640 5634 5628 5621 5615 5609 5603 5596 5590
5746 5746 5745 5744 5744 5743 5741 5740 5738 5736 5734 5731 5729 5726 5723 5720 5717 5714 5710 5707 5703 5699 5694 5690 5685 5679 5674 5668 5662 5656 5650 5644 5638 5632 5626 5620 5613 5607 5601 5595 5588 5582 5576